Goshen, IN

7:28 AM EDT on May 23, 2017 (GMT -0400)
Goshen Municipal

Weather History for KGSH - November, 2010

Change the Weather History Date:

Saturday, November 20, 2010

  Actual Average Record
Temperature  
Mean Temperature 39 °F -  
Max Temperature 48 °F 47 °F 67 °F (1985)
Min Temperature 30 °F 31 °F 15 °F (1964)
Degree Days  
Heating Degree Days 26    
Moisture  
Dew Point 34 °F    
Average Humidity 85    
Maximum Humidity 100    
Minimum Humidity 48    
Precipitation  
Precipitation 0.00 in - - ()
Sea Level Pressure  
Sea Level Pressure 30.23 in    
Wind  
Wind Speed 6 mph (SSE)    
Max Wind Speed 10 mph    
Max Gust Speed -    
Visibility 5 miles    
Events Fog    
Averages and records for this station are not official NWS values.
T = Trace of Precipitation, MM = Missing Value Source: NWS Daily Summary

Daily Weather History Graph

Daily Weather History Graph

Search for Another Location

Airport or City:

Trip Planner

Search our weather history database for the weather conditions in past years. The results will help you decide how hot, cold, wet, or windy it might be!

Date:

Astronomy

Nov. 20, 2010 Rise Set
Actual Time 7:37 AM EST 5:19 PM EST
Civil Twilight 7:07 AM EST 5:49 PM EST
Nautical Twilight 6:33 AM EST 6:23 PM EST
Astronomical Twilight 6:00 AM EST 6:56 PM EST
Moon 4:25 PM EST (11/20) 6:36 AM EST (11/20)
Length of Visible Light 10h 41m
Length of Day
9h 41m
Waxing Gibbous, 99% of the Moon is Illuminated
Nov 20
Waxing Gibbous
Nov 21
Full
Nov 28
Last Quarter
Dec 5
New
Dec 13
First Quarter

Hourly Weather History & Observations

Time (EST) Temp. Windchill Dew Point Humidity Pressure Visibility Wind Dir Wind Speed Gust Speed Precip Events Conditions
12:53 AM 37.9 °F 31.5 °F 35.1 °F 89% 30.13 in 5.0 mi SW 9.2 mph - N/A   Clear
1:53 AM 36.0 °F 29.6 °F 34.0 °F 93% 30.14 in 4.0 mi SW 8.1 mph - N/A   Clear
2:53 AM 37.0 °F 31.0 °F 35.1 °F 93% 30.16 in 4.0 mi SW 8.1 mph - N/A   Overcast
3:10 AM 37.4 °F 31.4 °F 35.6 °F 93% 30.14 in 4.0 mi SW 8.1 mph - N/A   Overcast
3:53 AM 37.9 °F 32.7 °F 36.0 °F 93% 30.17 in 5.0 mi WSW 6.9 mph - N/A   Overcast
4:53 AM 37.0 °F 33.3 °F 35.1 °F 93% 30.17 in 5.0 mi WSW 4.6 mph - N/A   Overcast
5:53 AM 37.0 °F 33.3 °F 35.1 °F 93% 30.19 in 5.0 mi SW 4.6 mph - N/A   Overcast
6:43 AM 35.6 °F 32.8 °F 33.8 °F 93% 30.19 in 4.0 mi South 3.5 mph - N/A   Scattered Clouds
6:53 AM 33.1 °F 28.7 °F 32.0 °F 96% 30.22 in 3.0 mi South 4.6 mph - N/A   Clear
7:22 AM 32.0 °F 27.5 °F 30.2 °F 93% 30.21 in 2.5 mi South 4.6 mph - N/A   Clear
7:35 AM 32.0 °F 28.7 °F 30.2 °F 93% 30.21 in 1.5 mi SSW 3.5 mph - N/A   Clear
7:50 AM 30.2 °F 25.4 °F 30.2 °F 100% 30.22 in 0.8 mi SSW 4.6 mph - N/A   Mist
7:53 AM 30.0 °F 23.2 °F 30.0 °F 100% 30.25 in 0.5 mi SSW 6.9 mph - N/A Fog Light Freezing Fog
8:53 AM 33.1 °F 28.7 °F 33.1 °F 100% 30.27 in 0.2 mi SSW 4.6 mph - N/A Fog Fog
9:53 AM 34.0 °F - 34.0 °F 100% 30.29 in 0.2 mi Calm Calm - N/A Fog Fog
10:53 AM 37.0 °F - 37.0 °F 100% 30.30 in 0.2 mi Calm Calm - N/A Fog Fog
11:14 AM 39.2 °F - 37.4 °F 93% 30.26 in 2.0 mi Calm Calm - N/A   Scattered Clouds
11:25 AM 41.0 °F 39.0 °F 37.4 °F 87% 30.26 in 4.0 mi NNE 3.5 mph - N/A   Partly Cloudy
11:53 AM 45.0 °F 41.2 °F 37.0 °F 74% 30.27 in 8.0 mi NE 6.9 mph - N/A   Clear
12:53 PM 46.0 °F 43.1 °F 34.0 °F 63% 30.26 in 10.0 mi North 5.8 mph - N/A   Clear
1:53 PM 48.9 °F - 33.1 °F 54% 30.24 in 10.0 mi Variable 3.5 mph - N/A   Clear
2:53 PM 48.9 °F - 30.0 °F 48% 30.25 in 10.0 mi Calm Calm - N/A   Clear
3:53 PM 48.0 °F - 30.9 °F 52% 30.26 in 10.0 mi NE 6.9 mph - N/A   Clear
4:53 PM 45.0 °F 42.6 °F 33.1 °F 63% 30.26 in 9.0 mi ENE 4.6 mph - N/A   Clear
5:53 PM 41.0 °F 37.1 °F 30.9 °F 67% 30.26 in 9.0 mi NE 5.8 mph - N/A   Partly Cloudy
6:53 PM 39.9 °F 35.8 °F 32.0 °F 73% 30.27 in 8.0 mi ESE 5.8 mph - N/A   Clear
7:53 PM 39.9 °F 35.1 °F 35.1 °F 83% 30.27 in 6.0 mi SE 6.9 mph - N/A   Haze
8:53 PM 39.0 °F 35.7 °F 37.0 °F 93% 30.27 in 4.0 mi SE 4.6 mph - N/A   Clear
9:24 PM 39.2 °F 35.0 °F 37.4 °F 93% 30.24 in 3.0 mi SE 5.8 mph - N/A   Mostly Cloudy
10:48 PM 41.0 °F 36.4 °F 37.4 °F 87% 30.24 in 3.0 mi East 6.9 mph - N/A   Overcast
10:53 PM 41.0 °F 37.1 °F 37.9 °F 89% 30.26 in 3.0 mi East 5.8 mph - N/A   Overcast
11:53 PM 41.0 °F 34.7 °F 39.0 °F 93% 30.24 in 3.0 mi SE 10.4 mph - N/A   Overcast